Regional Weather Roundup
Issued by NWS

Home | Current Version | Previous Version | Graphics & Text | Print | Product List | Glossary On
Versions: 1 2 3 4 5 6 7 8 9 10 11 12 13 14 15 16 17 18 19 20 21 22 23 24 25 26 27 28 29 30 31 32 33 34 35 36 37 38 39 40 41 42 43 44 45 46 47 48 49 50
535
ASUS43 KIND 071759
RWRIN

WEATHER ROUNDUP FOR INDIANA
NATIONAL WEATHER SERVICE INDIANAPOLIS IN
100 PM EST SUN FEB 07 2016

NOTE: "FAIR" INDICATES FEW OR NO CLOUDS BELOW 12,000 FEET WITH NO
SIGNIFICANT WEATHER AND/OR OBSTRUCTIONS TO VISIBILITY.

* - STATION DOES NOT REPORT WEATHER SUCH AS PRECIPITATION OR FOG.

+ - STATION NOT QUALITY CONTROLLED BY THE NATIONAL WEATHER SERVICE.
    USE DATA WITH CAUTION...ESPECIALLY DEWPOINT AND RELATIVE
    HUMIDITY OBSERVATIONS.

INZ001>003-010>013-019-020-071900-
NORTHWEST INDIANA

CITY           SKY/WX    TMP DP  RH WIND       PRES   REMARKS
GARY /AIRPORT/ PTSUNNY   45  27  49 SW20G36   29.79F

$$

LMZ046-743>745-071900-
SOUTHERN LAKE MICHIGAN

STATION/POSITION TIME  TEMP    WIND        PRES    WAVE
                       AIR SEA DIR/SP/G            HT
                 (UTC) (F)     (DEG/KT/KT) (MB)    (FT)
BURNS HARBOR     1700   43     220/ 17/ 28 1010.2
MICHIGAN CITY    1700   42     200/ 23/ 27   N/A

$$

INZ004-005-014>016-021>024-071900-
NORTH CENTRAL INDIANA

CITY           SKY/WX    TMP DP  RH WIND       PRES   REMARKS
ELKHART        MOSUNNY   46  28  49 S16       29.80
GOSHEN         CLOUDY    45  30  55 SW22G33   29.81F
6HR MIN TEMP:  35; 6HR MAX TEMP:  45;

PERU/GRISSOM   CLOUDY    48  30  50 SW21G28   29.84F
6HR MIN TEMP:  34; 6HR MAX TEMP:  48;

SOUTH BEND     MOSUNNY   44  29  55 SW18G30   29.80F
6HR MIN TEMP:  34; 6HR MAX TEMP:  45;


$$

INZ006>009-017-018-025>027-071900-
NORTHEAST INDIANA

CITY           SKY/WX    TMP DP  RH WIND       PRES   REMARKS
ANGOLA *+      SUNNY     43  30  61 SW16      29.82
FORT WAYNE     CLOUDY    47  31  53 SW21      29.86F
6HR MIN TEMP:  31; 6HR MAX TEMP:  47;


$$

INZ028-029-035-036-043>045-051>053-071900-
WEST CENTRAL INDIANA

CITY           SKY/WX    TMP DP  RH WIND       PRES   REMARKS
GREENCASTLE +  SUNNY     50  21  32 SW12G21   29.92F
LAFAYETTE      MOSUNNY   47  27  45 SW16G28   29.85F
6HR MIN TEMP:  34; 6HR MAX TEMP:  47;

TERRE HAUTE    SUNNY     52  30  43 SW20G26   29.92F
6HR MIN TEMP:  36; 6HR MAX TEMP:  52;


$$

INZ030>032-037>040-046>048-054>057-064-065-071900-
CENTRAL INDIANA

CITY           SKY/WX    TMP DP  RH WIND       PRES   REMARKS
GREENWOOD *+   SUNNY     52  34  50 SW17G23   29.94F
INDIANAPOLIS   MOSUNNY   52  26  36 SW23G36   29.91F
6HR MIN TEMP:  32; 6HR MAX TEMP:  52;

-EAGLE CREEK   CLOUDY    50  28  42 SW18G29   29.90F
6HR MIN TEMP:  34; 6HR MAX TEMP:  51;

KOKOMO *+        N/A     46  30  53 SW20G29   29.87F
6HR MIN TEMP:  34; 6HR MAX TEMP:  46;

MT COMFORT *+  SUNNY     50  32  50 SW21G28   29.93F
SHELBYVILLE    SUNNY     52  32  46 SW21      29.94F
6HR MIN TEMP:  33; 6HR MAX TEMP:  52;


$$

INZ033-034-041-042-049-050-058-059-071900-
EAST CENTRAL INDIANA

CITY           SKY/WX    TMP DP  RH WIND       PRES   REMARKS
MUNCIE         SUNNY     50  29  44 SW20G30   29.91F
6HR MIN TEMP:  36; 6HR MAX TEMP:  50;


$$

INZ060-061-067>069-081>083-085>088-071900-
SOUTHWEST INDIANA

CITY           SKY/WX    TMP DP  RH WIND       PRES   REMARKS
EVANSVILLE     MOSUNNY   53  29  39 S17       30.02F
6HR MIN TEMP:  34; 6HR MAX TEMP:  53;

HUNTINGBURG *+ SUNNY     52  32  46 SW20G26   30.03F
6HR MIN TEMP:  32; 6HR MAX TEMP:  52;


$$

INZ062-063-066-070>080-084-089>092-071900-
SOUTH CENTRAL AND SOUTHEAST INDIANA

CITY           SKY/WX    TMP DP  RH WIND       PRES   REMARKS
BLOOMINGTON    CLOUDY    51  31  46 SW17G37   29.96F
6HR MIN TEMP:  36; 6HR MAX TEMP:  51;

MADISON *+     SUNNY     52  21  30 S14G20    30.03F
SEYMOUR +      SUNNY     54  30  40 SW14      29.99F

$$





USA.gov is the U.S. government's official web portal to all federal, state and local government web resources and services.